Regional Weather Roundup
Issued by NWS

Home | Current Version | Previous Version | Text Only | Print | Product List | Glossary On
Versions: 1 2 3 4 5 6 7 8 9 10 11 12 13 14 15 16 17 18 19 20 21 22 23 24 25 26 27 28 29 30 31 32 33 34 35 36 37 38 39 40 41 42 43 44 45 46 47 48 49 50
180
ASUS44 KMEG 191410
RWRTN
TENNESSEE HOURLY STATE WEATHER ROUNDUP
NATIONAL WEATHER SERVICE MEMPHIS TN
800 AM CST SUN JAN 19 2020

TNZ002-004-019-021-049-052-054-088>092-191500-
WEST TENNESSEE

CITY           SKY/WX    TMP DP  RH WIND       PRES   REMARKS
MEMPHIS INTL   FAIR      34  16  47 NW12      30.44R WCI  25
NWS MEMPHIS      N/A     32 N/A N/A MISG        N/A
JACKSON        FAIR      32  14  47 NW13G23   30.39R WCI  22
DYERSBURG      FAIR      32  17  54 NW13G20   30.42R WCI  22
SOMERVILLE     CLEAR     32  16  51 NW8       30.39R WCI  25
COVINGTON      CLEAR     34  16  47 NW15G22   30.42R WCI  24
UNION CITY     CLEAR     30  14  51 W7        30.38R WCI  23
BOLIVAR        CLEAR     32  16  51 W7G14     30.38R WCI  26
PARIS          CLEAR     30  12  47 VRB6G13   30.34R WCI  24
LEXINGTON      CLEAR     32  12  43 NW12      30.34R WCI  23
SELMER         CLEAR     32  12  43 VRB6      30.35R WCI  26
SAVANNAH       CLEAR     34  16  47 NW13G18   30.35R WCI  25
$$

TNZ008-025-027-028-033-062-065-066-191500-
NORTH MIDDLE TENNESSEE

CITY           SKY/WX    TMP DP  RH WIND       PRES   REMARKS
NASHVILLE      FAIR      32  12  43 NW14G23   30.29R WCI  22
DICKSON        SUNNY     28  12  50 NW7       30.28S WCI  21
PORTLAND       SUNNY     28  16  59 NW7G15    30.26R WCI  21
CLARKSVILLE    FAIR      29  15  56 NW12      30.32R WCI  19
SMYRNA         FAIR      31  17  56 W9        30.31R WCI  23
COOKEVILLE     SUNNY     30  16  55 NW8       30.24R WCI  23
LIVINGSTON     SUNNY     27  14  59 NW8G15    30.20R WCI  18
GALLATIN       SUNNY     30  16  55 VRB6      30.31S WCI  24
CROSSVILLE     FAIR      26  14  60 NW8G23    30.18R WCI  18
ROCKWOOD       SUNNY     28  16  59 NW12      30.17R WCI  18
$$

TNZ061-075-076-078-094-096-097-191500-
SOUTH MIDDLE TENNESSEE

CITY           SKY/WX    TMP DP  RH WIND       PRES   REMARKS
LAWRENCEBURG   SUNNY     30  14  51 NW9G16    30.29R WCI  22
LEWISBURG      SUNNY     32  14  47 NW9       30.29R WCI  24
FAYETTEVILLE   SUNNY     32  16  51 NW7       30.27R WCI  26
TULLAHOMA      SUNNY     30  16  55 NW10      30.26R WCI  21
WINCHESTER     SUNNY     32  14  47 NW7       30.27R WCI  26
MCMINNVILLE    SUNNY     30  16  55 NW7       30.26R WCI  23
COLUMBIA       SUNNY     32  10  40 VRB6      30.30R WCI  26
SHELBYVILLE    SUNNY     30  18  59 NW5       30.28R WCI  25
$$

TNZ017-018-042-046-047-191500-
NORTHEAST TENNESSEE

CITY           SKY/WX    TMP DP  RH WIND       PRES   REMARKS
TRI CITIES     FAIR      34  22  61 W16       30.09R WCI  24
ELIZABETHTON   FAIR      36  21  55 W10G18    30.07R WCI  28
GREENEVILLE    SUNNY     32  19  59 W12       30.11R WCI  23
$$

TNZ012-013-036-069-073-074-191500-
CENTRAL EAST TENNESSEE

CITY           SKY/WX    TMP DP  RH WIND       PRES   REMARKS
KNOXVILLE      FAIR      34  21  59 W10       30.19R WCI  26
OAK RIDGE      FAIR      33  19  56 VRB5      30.20R WCI  29
GATLINBURG     SUNNY     34  21  60 W8        30.18R WCI  27
MORRISTOWN     SUNNY     32  18  55 W10       30.14R WCI  24
$$

TNZ083-085-099-191500-
SOUTHEAST TENNESSEE

CITY           SKY/WX    TMP DP  RH WIND       PRES   REMARKS
CHATTANOOGA    FAIR      35  18  49 NW13      30.25R WCI  26
DAYTON         SUNNY     34  21  60 NW6       30.23R WCI  29
$$

SKY/WX REPORTED AS FAIR MEANS FEW OR NO CLOUDS BELOW
12 THOUSAND FEET.





USA.gov is the U.S. government's official web portal to all federal, state and local government web resources and services.